Starlink 31819

operational
NORAD ID: 59738 Int'l Des: 2024-090 Owner: SPXS Country: US Constellation: starlink
LEOCIRCULAR

Über Starlink 31819

Beschreibung wird geladen...

Live-Position

3D-Globus wird geladen...

Nächste Überflüge

Höhenverlauf

Altitude vs Time

uPlot chart will show altitude changes over time

Zweizeiliger Elementsatz

1 59738U 24090J 25304.77289281 .00000883 00000-0 41625-4 0 9996
2 59738 43.0006 191.5750 0001549 246.1256 113.9433 15.27559605 83729
Epoch: 31. Okt. 2025 • Age: 34 hours

Aktueller Status

Höhe 494.8 km
Geschwindigkeit 7.62 km/s
Subsatellitenpunkt -41.68°S, 35.79°W
Startdatum 13. Mai 2024
Alter 1.4 years
Typ internet

Technische Details

Klassifizierung Payload
Masse 730.00 kg
Trockenmasse 700.00 kg
Gesamtmasse 730.00 kg
Länge 0.30 m
Durchmesser 4.10 m
Spannweite 29.00 m
Form Box + pan
Hersteller SPXS
Bus-Typ Starlink V2M
Phasenstatus In Orbit
Besitzer/Staat SPXS/US

Große Konstellationen

Loading constellations...